{"data":{"norad_id":55439,"epoch":"2026-09-20T14:34:10.203456Z","epoch_age_seconds":90827,"freshness":"FRESH","line1":"1 55439U 23014BA  26263.60706254  .00000108  00000+0  16882-4 0  9992","line2":"2 55439  69.9997 333.0758 0003286 269.8194  90.2588 14.98331245200266","mean_motion":14.98331245,"eccentricity":0.0003286,"inclination_deg":69.9997,"raan_deg":333.0758,"arg_perigee_deg":269.8194,"mean_anomaly_deg":90.2588,"bstar":1.6882e-5,"rev_number":20026,"period_min":96.106919268042,"perigee_km":569.76820876845,"apogee_km":574.33587300612,"semimajor_km":6950.1890408873,"source":"CELESTRAK","updated_at":"2026-09-21T09:00:33.224639Z"}}